• In Austria
  • List of Countries
  • For 7 days
  • Water Temperature
  • Satellite Maps
  • Weather Map
  • News
  • Weather Widgets
  • user-avatar
    Login

    Hourly Weather Vidin

    Today, 20 May, Sunday

    Time Temperature Precipitation Wind Pressure Humidity
    00:00 +16°C° 0 mm 2 mps 759 mmHg 84%
    01:00 +15°C° 0 mm 2 mps 759 mmHg 86%
    02:00 +15°C° 0 mm 1 mps 759 mmHg 88%
    03:00 +15°C° 0 mm 1 mps 759 mmHg 89%
    04:00 +14°C° 0 mm 1 mps 759 mmHg 90%
    05:00 +14°C° 0 mm 1 mps 759 mmHg 91%
    06:00 +16°C° 0 mm 1 mps 759 mmHg 86%
    07:00 +18°C° 0 mm 1 mps 760 mmHg 81%
    08:00 +20°C° 0 mm 1 mps 760 mmHg 74%
    09:00 +21°C° 0 mm 1 mps 760 mmHg 69%
    10:00 +23°C° 0 mm 1 mps 760 mmHg 64%
    11:00 +24°C° 0 mm 1 mps 760 mmHg 60%
    12:00 +25°C° 0.1 mm 1 mps 760 mmHg 57%
    13:00 +26°C° 0.1 mm 1 mps 759 mmHg 54%
    14:00 +27°C° 0.1 mm 1 mps 759 mmHg 51%
    15:00 +26°C° 0 mm 1 mps 759 mmHg 51%
    16:00 +26°C° 0 mm 1 mps 758 mmHg 51%
    17:00 +26°C° 0 mm 1 mps 758 mmHg 51%
    18:00 +24°C° 0 mm 1 mps 758 mmHg 57%
    19:00 +23°C° 0 mm 1 mps 758 mmHg 63%
    20:00 +21°C° 0 mm 1 mps 758 mmHg 69%
    21:00 +20°C° 0.1 mm 1 mps 759 mmHg 71%
    22:00 +19°C° 0.1 mm 1 mps 759 mmHg 74%
    23:00 +19°C° 0.1 mm 1 mps 760 mmHg 76%

    Tomorrow, 21 May, Monday

    Time Temperature Precipitation Wind Pressure Humidity
    00:00 +18°C° 0.1 mm 1 mps 760 mmHg 78%
    01:00 +17°C° 0.1 mm 2 mps 760 mmHg 81%
    02:00 +16°C° 0.1 mm 2 mps 760 mmHg 83%
    03:00 +16°C° 0 mm 2 mps 760 mmHg 85%
    04:00 +16°C° 0 mm 2 mps 760 mmHg 87%
    05:00 +15°C° 0 mm 2 mps 760 mmHg 89%
    06:00 +17°C° 0 mm 3 mps 760 mmHg 85%
    07:00 +18°C° 0 mm 3 mps 760 mmHg 81%
    08:00 +19°C° 0 mm 4 mps 760 mmHg 77%
    09:00 +20°C° 0.1 mm 4 mps 760 mmHg 74%
    10:00 +21°C° 0.1 mm 4 mps 760 mmHg 72%
    11:00 +23°C° 0.1 mm 5 mps 760 mmHg 69%
    12:00 +23°C° 0.5 mm 5 mps 759 mmHg 67%
    13:00 +25°C° 0.5 mm 5 mps 759 mmHg 65%
    14:00 +26°C° 0.5 mm 5 mps 758 mmHg 63%
    15:00 +26°C° 0.5 mm 5 mps 758 mmHg 65%
    16:00 +25°C° 0.5 mm 5 mps 758 mmHg 67%
    17:00 +25°C° 0.5 mm 5 mps 758 mmHg 68%
    18:00 +23°C° 0.6 mm 5 mps 758 mmHg 74%
    19:00 +21°C° 0.6 mm 4 mps 758 mmHg 79%
    20:00 +20°C° 0.6 mm 3 mps 758 mmHg 84%
    21:00 +19°C° 1 mm 4 mps 758 mmHg 85%
    22:00 +19°C° 1 mm 4 mps 758 mmHg 87%
    23:00 +18°C° 1 mm 4 mps 759 mmHg 88%

    Day after tomorrow, 22 May, Tuesday

    Time Temperature Precipitation Wind Pressure Humidity
    00:00 +18°C° 0.8 mm 4 mps 759 mmHg 89%
    01:00 +18°C° 0.8 mm 4 mps 759 mmHg 90%
    02:00 +17°C° 0.8 mm 4 mps 759 mmHg 91%
    03:00 +17°C° 0.1 mm 3 mps 759 mmHg 91%
    04:00 +16°C° 0.1 mm 3 mps 759 mmHg 91%
    05:00 +16°C° 0.1 mm 3 mps 759 mmHg 91%
    06:00 +17°C° 0 mm 3 mps 759 mmHg 89%
    07:00 +17°C° 0 mm 3 mps 759 mmHg 86%
    08:00 +18°C° 0 mm 3 mps 759 mmHg 84%
    09:00 +19°C° 0 mm 3 mps 759 mmHg 80%
    10:00 +20°C° 0 mm 3 mps 759 mmHg 77%
    11:00 +21°C° 0 mm 3 mps 759 mmHg 73%
    12:00 +22°C° 0 mm 3 mps 759 mmHg 71%
    13:00 +24°C° 0 mm 3 mps 759 mmHg 68%
    14:00 +25°C° 0 mm 3 mps 759 mmHg 66%
    15:00 +26°C° 0 mm 3 mps 759 mmHg 65%
    16:00 +26°C° 0 mm 3 mps 758 mmHg 65%
    17:00 +26°C° 0 mm 3 mps 758 mmHg 64%
    18:00 +25°C° 0.2 mm 3 mps 758 mmHg 69%
    19:00 +24°C° 0.2 mm 2 mps 759 mmHg 73%
    20:00 +21°C° 0.2 mm 2 mps 759 mmHg 77%
    21:00 +21°C° 0.2 mm 2 mps 759 mmHg 78%
    22:00 +20°C° 0.2 mm 2 mps 759 mmHg 79%
    23:00 +19°C° 0.2 mm 2 mps 760 mmHg 80%

    23 May, Wednesday

    Time Temperature Precipitation Wind Pressure Humidity
    00:00 +19°C° 0.1 mm 2 mps 760 mmHg 82%
    01:00 +18°C° 0.1 mm 2 mps 760 mmHg 83%
    02:00 +18°C° 0.1 mm 2 mps 760 mmHg 84%
    03:00 +17°C° 0.1 mm 2 mps 760 mmHg 85%
    04:00 +17°C° 0.1 mm 2 mps 760 mmHg 85%
    05:00 +16°C° 0.1 mm 2 mps 760 mmHg 86%
    06:00 +17°C° 0.4 mm 2 mps 760 mmHg 84%
    07:00 +18°C° 0.4 mm 2 mps 760 mmHg 82%
    08:00 +19°C° 0.4 mm 2 mps 760 mmHg 79%
    09:00 +20°C° 0.5 mm 2 mps 760 mmHg 78%
    10:00 +21°C° 0.5 mm 2 mps 760 mmHg 76%
    11:00 +23°C° 0.5 mm 2 mps 760 mmHg 75%
    12:00 +24°C° 0.1 mm 2 mps 760 mmHg 73%
    13:00 +25°C° 0.1 mm 2 mps 759 mmHg 71%
    14:00 +25°C° 0.1 mm 2 mps 759 mmHg 69%
    15:00 +26°C° 0.1 mm 2 mps 759 mmHg 68%
    16:00 +26°C° 0.1 mm 2 mps 758 mmHg 66%
    17:00 +27°C° 0.1 mm 2 mps 758 mmHg 64%
    18:00 +25°C° 0.1 mm 2 mps 758 mmHg 68%
    19:00 +24°C° 0.1 mm 1 mps 758 mmHg 72%
    20:00 +23°C° 0.1 mm 1 mps 758 mmHg 77%
    21:00 +22°C° 0.3 mm 1 mps 758 mmHg 77%
    22:00 +22°C° 0.3 mm 1 mps 758 mmHg 77%
    23:00 +21°C° 0.3 mm 1 mps 758 mmHg 78%

    24 May, Thursday

    Time Temperature Precipitation Wind Pressure Humidity
    00:00 +20°C° 0.2 mm 2 mps 758 mmHg 79%
    01:00 +20°C° 0.2 mm 2 mps 758 mmHg 80%
    02:00 +19°C° 0.2 mm 2 mps 758 mmHg 81%
    03:00 +19°C° 0.3 mm 2 mps 758 mmHg 82%
    04:00 +18°C° 0.3 mm 2 mps 758 mmHg 83%
    05:00 +18°C° 0.3 mm 2 mps 757 mmHg 84%
    06:00 +19°C° 0.3 mm 2 mps 758 mmHg 82%
    07:00 +20°C° 0.3 mm 2 mps 758 mmHg 80%
    08:00 +21°C° 0.3 mm 2 mps 758 mmHg 79%
    09:00 +23°C° 0.1 mm 2 mps 758 mmHg 75%
    10:00 +24°C° 0.1 mm 3 mps 758 mmHg 71%
    11:00 +25°C° 0.1 mm 3 mps 757 mmHg 68%
    12:00 +26°C° 0 mm 3 mps 757 mmHg 63%
    13:00 +27°C° 0 mm 3 mps 757 mmHg 58%
    14:00 +28°C° 0 mm 3 mps 756 mmHg 54%
    15:00 +28°C° 0 mm 3 mps 756 mmHg 53%
    16:00 +28°C° 0 mm 3 mps 756 mmHg 53%
    17:00 +28°C° 0 mm 3 mps 756 mmHg 53%
    18:00 +26°C° 0 mm 2 mps 756 mmHg 59%
    19:00 +24°C° 0 mm 2 mps 756 mmHg 65%
    20:00 +22°C° 0 mm 1 mps 756 mmHg 71%
    21:00 +21°C° 0 mm 1 mps 757 mmHg 72%
    22:00 +21°C° 0 mm 1 mps 757 mmHg 74%
    23:00 +20°C° 0 mm 1 mps 757 mmHg 75%

    25 May, Friday

    Time Temperature Precipitation Wind Pressure Humidity
    00:00 +20°C° 0 mm 1 mps 757 mmHg 76%
    01:00 +19°C° 0 mm 1 mps 757 mmHg 77%
    02:00 +18°C° 0 mm 2 mps 757 mmHg 77%
    03:00 +18°C° 0 mm 1 mps 757 mmHg 78%
    04:00 +18°C° 0 mm 1 mps 757 mmHg 79%
    05:00 +18°C° 0 mm 1 mps 757 mmHg 80%
    06:00 +19°C° 0 mm 1 mps 757 mmHg 76%
    07:00 +21°C° 0 mm 1 mps 758 mmHg 71%
    08:00 +23°C° 0 mm 1 mps 758 mmHg 67%
    09:00 +25°C° 0 mm 1 mps 758 mmHg 63%
    10:00 +26°C° 0 mm 1 mps 758 mmHg 59%
    11:00 +28°C° 0 mm 1 mps 758 mmHg 54%
    12:00 +28°C° 0 mm 1 mps 757 mmHg 51%
    13:00 +29°C° 0 mm 2 mps 757 mmHg 48%
    14:00 +30°C° 0 mm 2 mps 757 mmHg 45%
    15:00 +30°C° 0 mm 2 mps 757 mmHg 46%
    16:00 +30°C° 0 mm 2 mps 757 mmHg 47%
    17:00 +29°C° 0 mm 2 mps 757 mmHg 49%
    18:00 +27°C° 0 mm 2 mps 757 mmHg 55%
    19:00 +26°C° 0 mm 1 mps 757 mmHg 61%
    20:00 +24°C° 0 mm 1 mps 757 mmHg 67%
    21:00 +23°C° 0 mm 1 mps 757 mmHg 68%
    22:00 +22°C° 0 mm 1 mps 758 mmHg 70%
    23:00 +22°C° 0 mm 1 mps 758 mmHg 71%
    Show more